Flag for U.S.A. Weather past 2 weeks in Glendale, Arizona, U.S.A.

Now
92 °F

Sunny.


Feels Like: 92 °F
Forecast: 82 / 101 °F
Wind: 10 mph from Southeast

Location: Phoenix-Deer Valley Municipal Airport

Current Time: Aug 31, 2015 at 9:31:58 AM

Latest Report: Aug 31, 2015 at 8:53 AM


Visibility: 10 mi

Pressure: 29.82 "Hg

Humidity: 36%

Dew point: 61 °F

Location of GlendaleLocation

Historic Weather in Glendale — Graph

°F

Glendale temperature yesterday

Maximum temperature yesterday: 103 °F (at 2:53 PM)
Minimum temperature yesterday: 84 °F (at 4:53 AM)
Average temperature yesterday: 94 °F

Past Weeks' High & Low Weather Summary

 TemperatureHumidityPressure
High109 °F (Aug 16, 5:53 PM)63% (Aug 25, 8:53 PM)29.95 "Hg (Aug 25, 8:53 PM)
Low81 °F (Aug 28, 5:53 AM)16% (Aug 16, 5:53 PM)29.62 "Hg (Aug 18, 6:53 PM)
Average93 °F32%29.78 "Hg
* Reported Aug 16 7:53 AM — Aug 31 7:53 AM, Glendale, Weather by CustomWeather, © 2015

Note: Actual official high and low records may vary slightly from our data, if they occured in-between our weather recording intervals... More about our weather records

Advertising

Glendale weather history for previous 24 hours

 ConditionsComfort  
Time TempWeatherWind HumidityBarometerVisibility
7:53 AM
Mon, Aug 31
89 °FSunny.10 mph41%29.81 "Hg10 mi
6:53 AM86 °FSunny.3 mph46%29.80 "Hg10 mi
5:53 AM85 °FClear.6 mph46%29.78 "Hg10 mi
4:53 AM85 °FClear.7 mph46%29.76 "Hg10 mi
3:53 AM86 °FClear.8 mph45%29.75 "Hg10 mi
2:53 AM87 °FClear.6 mph43%29.74 "Hg10 mi
1:53 AM88 °FClear.7 mph42%29.74 "Hg10 mi
12:53 AM91 °FPassing clouds.No wind36%29.73 "Hg10 mi
11:53 PM
Sun, Aug 30
89 °FClear.8 mph41%29.72 "Hg10 mi
10:53 PM91 °FPassing clouds.9 mph36%29.72 "Hg10 mi
9:53 PM94 °FPassing clouds.9 mph31%29.71 "Hg10 mi
8:53 PM96 °FPassing clouds.10 mph28%29.70 "Hg10 mi
7:53 PM97 °FClear.13 mph28%29.67 "Hg10 mi
6:53 PM101 °FSunny.8 mph23%29.65 "Hg10 mi
5:53 PM102 °FSunny.6 mph23%29.64 "Hg10 mi
4:53 PM103 °FSunny.7 mph22%29.65 "Hg10 mi
3:53 PM103 °FSunny.12 mph22%29.67 "Hg10 mi
2:53 PM103 °FSunny.6 mph22%29.70 "Hg10 mi
1:53 PM102 °FSunny.6 mph23%29.73 "Hg10 mi
12:53 PM101 °FSunny.9 mph22%29.76 "Hg10 mi
11:53 AM99 °FSunny.5 mph23%29.80 "Hg10 mi
10:53 AM99 °FSunny.8 mph24%29.82 "Hg10 mi
9:53 AM95 °FSunny.6 mph29%29.82 "Hg10 mi
Weather by CustomWeather, © 2015

See weather overviewHow to use our weather pages